TimeEST,TemperatureF,Dew PointF,Humidity,Sea Level PressureIn,VisibilityMPH,Wind Direction,Wind SpeedMPH,Gust SpeedMPH,PrecipitationIn,Events,Conditions,WindDirDegrees,DateUTC
12:54 AM,19.9,12.9,74,30.35,10.0,WSW,3.5,-,N/A,,Clear,250,2013-11-28 05:54:00
1:54 AM,19.0,12.9,77,30.34,10.0,WSW,4.6,-,N/A,,Clear,240,2013-11-28 06:54:00
2:54 AM,18.0,12.0,78,30.36,10.0,SSW,3.5,-,N/A,,Clear,200,2013-11-28 07:54:00
3:54 AM,17.1,12.0,81,30.38,10.0,SSE,4.6,-,N/A,,Clear,160,2013-11-28 08:54:00
4:54 AM,17.1,12.0,81,30.39,10.0,South,3.5,-,N/A,,Clear,170,2013-11-28 09:54:00
5:54 AM,17.1,12.0,81,30.42,10.0,South,3.5,-,N/A,,Clear,170,2013-11-28 10:54:00
6:54 AM,17.1,12.9,84,30.44,10.0,South,5.8,-,N/A,,Clear,180,2013-11-28 11:54:00
7:54 AM,19.0,12.9,77,30.46,10.0,SSW,4.6,-,N/A,,Clear,200,2013-11-28 12:54:00
8:54 AM,21.0,14.0,74,30.47,10.0,SSW,5.8,-,N/A,,Clear,200,2013-11-28 13:54:00
9:54 AM,24.1,15.1,69,30.47,10.0,SSW,10.4,-,N/A,,Clear,200,2013-11-28 14:54:00
10:54 AM,27.0,17.1,66,30.46,10.0,South,12.7,-,N/A,,Clear,190,2013-11-28 15:54:00
11:54 AM,28.9,19.0,67,30.43,10.0,South,13.8,-,N/A,,Clear,190,2013-11-28 16:54:00
12:54 PM,30.9,19.9,64,30.40,10.0,SW,11.5,-,N/A,,Clear,220,2013-11-28 17:54:00
1:54 PM,33.1,19.9,59,30.35,10.0,South,15.0,-,N/A,,Clear,190,2013-11-28 18:54:00
2:54 PM,35.1,21.0,57,30.34,10.0,South,13.8,-,N/A,,Clear,190,2013-11-28 19:54:00
3:54 PM,36.0,21.0,55,30.34,10.0,South,15.0,-,N/A,,Clear,190,2013-11-28 20:54:00
4:54 PM,36.0,21.9,57,30.36,10.0,SW,8.1,-,N/A,,Clear,220,2013-11-28 21:54:00
5:54 PM,32.0,21.0,64,30.38,10.0,SSW,6.9,-,N/A,,Clear,200,2013-11-28 22:54:00
6:54 PM,32.0,19.9,61,30.40,10.0,West,3.5,-,N/A,,Clear,270,2013-11-28 23:54:00
7:54 PM,32.0,19.0,59,30.43,10.0,West,3.5,-,N/A,,Clear,260,2013-11-29 00:54:00
8:54 PM,30.0,18.0,61,30.45,10.0,WSW,5.8,-,N/A,,Clear,240,2013-11-29 01:54:00
9:54 PM,30.0,18.0,61,30.47,10.0,SW,4.6,-,N/A,,Clear,230,2013-11-29 02:54:00
10:54 PM,28.9,17.1,61,30.48,10.0,SSW,4.6,-,N/A,,Clear,210,2013-11-29 03:54:00
11:54 PM,27.0,17.1,66,30.49,10.0,South,4.6,-,N/A,,Clear,190,2013-11-29 04:54:00